Time,TemperatureF,DewpointF,PressureIn,WindDirection,WindDirectionDegrees,WindSpeedMPH,WindSpeedGustMPH,Humidity,HourlyPrecipIn,Conditions,Clouds,dailyrainin,SolarRadiationWatts/m^2,SoftwareType,DateUTC
2013-01-02 00:01:00,28.0,25.0,-100.00,NNW,345,4.0,9.0,88,0.00,,,0.03,0.000000,,2013-01-02 05:01:00,
2013-01-02 00:33:00,28.0,25.0,-100.00,NNW,345,4.0,9.0,88,0.00,,,0.03,0.000000,,2013-01-02 05:33:00,
2013-01-02 00:43:00,28.0,25.0,-100.00,NNW,345,4.0,9.0,88,0.00,,,0.03,0.000000,,2013-01-02 05:43:00,
2013-01-02 00:53:00,28.0,25.0,-100.00,NNW,345,4.0,9.0,88,0.00,,,0.03,0.000000,,2013-01-02 05:53:00,
2013-01-02 01:01:00,28.0,25.0,-100.00,North,6,6.0,10.0,88,0.00,,,0.03,0.000000,,2013-01-02 06:01:00,
2013-01-02 01:33:00,28.0,25.0,-100.00,North,6,6.0,10.0,88,0.00,,,0.03,0.000000,,2013-01-02 06:33:00,
2013-01-02 01:42:00,28.0,25.0,-100.00,North,6,6.0,10.0,88,0.00,,,0.03,0.000000,,2013-01-02 06:42:00,
2013-01-02 01:53:00,28.0,25.0,-100.00,North,6,6.0,10.0,88,0.00,,,0.03,0.000000,,2013-01-02 06:53:00,
2013-01-02 02:01:00,28.0,24.0,-100.00,NNE,12,7.0,14.0,83,0.00,,,0.03,0.000000,,2013-01-02 07:01:00,
2013-01-02 02:22:00,28.0,24.0,-100.00,NNE,12,7.0,14.0,83,0.00,,,0.03,0.000000,,2013-01-02 07:22:00,
2013-01-02 02:32:00,28.0,24.0,-100.00,NNE,12,7.0,14.0,83,0.00,,,0.03,0.000000,,2013-01-02 07:32:00,
2013-01-02 02:42:00,28.0,24.0,-100.00,NNE,12,7.0,14.0,83,0.00,,,0.03,0.000000,,2013-01-02 07:42:00,
2013-01-02 02:52:00,28.0,24.0,-100.00,NNE,12,7.0,14.0,83,0.00,,,0.03,0.000000,,2013-01-02 07:52:00,
2013-01-02 03:01:00,27.0,22.0,-100.00,North,351,5.0,12.0,82,0.00,,,0.03,0.000000,,2013-01-02 08:01:00,
2013-01-02 03:32:00,27.0,22.0,-100.00,North,351,5.0,12.0,82,0.00,,,0.03,0.000000,,2013-01-02 08:32:00,
2013-01-02 03:42:00,27.0,22.0,-100.00,North,351,5.0,12.0,82,0.00,,,0.03,0.000000,,2013-01-02 08:42:00,
2013-01-02 03:53:00,27.0,22.0,-100.00,North,351,5.0,12.0,82,0.00,,,0.03,0.000000,,2013-01-02 08:53:00,
2013-01-02 04:01:00,27.0,23.0,-100.00,North,356,4.0,11.0,85,0.00,,,0.03,0.000000,,2013-01-02 09:01:00,
2013-01-02 04:32:00,27.0,23.0,-100.00,North,356,4.0,11.0,85,0.00,,,0.03,0.000000,,2013-01-02 09:32:00,
2013-01-02 04:43:00,27.0,23.0,-100.00,North,356,4.0,11.0,85,0.00,,,0.03,0.000000,,2013-01-02 09:43:00,
2013-01-02 04:53:00,27.0,23.0,-100.00,North,356,4.0,11.0,85,0.00,,,0.03,0.000000,,2013-01-02 09:53:00,
2013-01-02 05:01:00,26.0,23.0,-100.00,North,350,6.0,13.0,89,0.00,,,0.03,0.000000,,2013-01-02 10:01:00,
2013-01-02 05:22:00,26.0,23.0,-100.00,North,350,6.0,13.0,89,0.00,,,0.03,0.000000,,2013-01-02 10:22:00,
2013-01-02 05:32:00,26.0,23.0,-100.00,North,350,6.0,13.0,89,0.00,,,0.03,0.000000,,2013-01-02 10:32:00,
2013-01-02 05:42:00,26.0,23.0,-100.00,North,350,6.0,13.0,89,0.00,,,0.03,0.000000,,2013-01-02 10:42:00,
2013-01-02 05:53:00,26.0,23.0,-100.00,North,350,6.0,13.0,89,0.00,,,0.03,0.000000,,2013-01-02 10:53:00,
2013-01-02 06:01:00,25.0,23.0,-100.00,NNE,14,7.0,15.0,93,0.00,,,0.03,0.000000,,2013-01-02 11:01:00,
2013-01-02 06:33:00,25.0,23.0,-100.00,NNE,14,7.0,15.0,93,0.00,,,0.03,0.000000,,2013-01-02 11:33:00,
2013-01-02 06:43:00,25.0,23.0,-100.00,NNE,14,7.0,15.0,93,0.00,,,0.03,0.000000,,2013-01-02 11:43:00,
2013-01-02 06:53:00,25.0,23.0,-100.00,NNE,14,7.0,15.0,93,0.00,,,0.03,0.000000,,2013-01-02 11:53:00,
2013-01-02 07:01:00,24.0,23.0,-100.00,NNW,344,6.0,12.0,95,0.00,,,0.03,0.000000,,2013-01-02 12:01:00,
2013-01-02 07:33:00,24.0,23.0,-100.00,NNW,344,6.0,12.0,95,0.00,,,0.03,0.000000,,2013-01-02 12:33:00,
2013-01-02 07:43:00,24.0,23.0,-100.00,NNW,344,6.0,12.0,95,0.00,,,0.03,0.000000,,2013-01-02 12:43:00,
2013-01-02 07:53:00,24.0,23.0,-100.00,NNW,344,6.0,12.0,95,0.00,,,0.03,0.000000,,2013-01-02 12:53:00,
2013-01-02 08:01:00,24.0,20.0,-100.00,NNW,341,6.0,15.0,83,0.00,,,0.03,6.000000,,2013-01-02 13:01:00,
2013-01-02 08:33:00,24.0,20.0,-100.00,NNW,341,6.0,15.0,83,0.00,,,0.03,6.000000,,2013-01-02 13:33:00,
2013-01-02 08:43:00,24.0,20.0,-100.00,NNW,341,6.0,15.0,83,0.00,,,0.03,6.000000,,2013-01-02 13:43:00,
2013-01-02 08:53:00,24.0,20.0,-100.00,NNW,341,6.0,15.0,83,0.00,,,0.03,6.000000,,2013-01-02 13:53:00,
2013-01-02 09:01:00,24.0,14.0,-100.00,NNE,18,5.0,16.0,65,0.00,,,0.03,38.000000,,2013-01-02 14:01:00,
2013-01-02 09:33:00,24.0,14.0,-100.00,NNE,18,5.0,16.0,65,0.00,,,0.03,38.000000,,2013-01-02 14:33:00,
2013-01-02 09:43:00,24.0,14.0,-100.00,NNE,18,5.0,16.0,65,0.00,,,0.03,38.000000,,2013-01-02 14:43:00,
2013-01-02 09:53:00,24.0,14.0,-100.00,NNE,18,5.0,16.0,65,0.00,,,0.03,38.000000,,2013-01-02 14:53:00,
2013-01-02 10:01:00,27.0,14.0,-100.00,WNW,285,4.0,10.0,58,0.00,,,0.03,201.000000,,2013-01-02 15:01:00,
2013-01-02 10:33:00,27.0,14.0,-100.00,WNW,285,4.0,10.0,58,0.00,,,0.03,201.000000,,2013-01-02 15:33:00,
2013-01-02 10:43:00,27.0,14.0,-100.00,WNW,285,4.0,10.0,58,0.00,,,0.03,201.000000,,2013-01-02 15:43:00,
2013-01-02 10:53:00,27.0,14.0,-100.00,WNW,285,4.0,10.0,58,0.00,,,0.03,201.000000,,2013-01-02 15:53:00,
2013-01-02 11:01:00,32.0,16.0,-100.00,North,351,4.0,7.0,51,0.02,,,0.05,496.000000,,2013-01-02 16:01:00,
2013-01-02 11:33:00,32.0,16.0,-100.00,North,351,4.0,7.0,51,0.02,,,0.05,496.000000,,2013-01-02 16:33:00,
2013-01-02 11:43:00,32.0,16.0,-100.00,North,351,4.0,7.0,51,0.02,,,0.05,496.000000,,2013-01-02 16:43:00,
2013-01-02 11:54:00,32.0,16.0,-100.00,North,351,4.0,7.0,51,0.02,,,0.05,496.000000,,2013-01-02 16:54:00,
2013-01-02 12:01:00,33.0,15.0,-100.00,NNE,12,3.0,9.0,47,0.02,,,0.06,499.000000,,2013-01-02 17:01:00,
2013-01-02 12:33:00,33.0,15.0,-100.00,NNE,12,3.0,9.0,47,0.02,,,0.06,499.000000,,2013-01-02 17:33:00,
2013-01-02 12:43:00,33.0,15.0,-100.00,NNE,12,3.0,9.0,47,0.02,,,0.06,499.000000,,2013-01-02 17:43:00,
2013-01-02 12:54:00,33.0,15.0,-100.00,NNE,12,3.0,9.0,47,0.02,,,0.06,499.000000,,2013-01-02 17:54:00,
2013-01-02 13:01:00,31.0,10.0,-100.00,North,5,5.0,10.0,40,0.04,,,0.10,480.000000,,2013-01-02 18:01:00,
2013-01-02 13:23:00,31.0,10.0,-100.00,North,5,5.0,10.0,40,0.04,,,0.10,480.000000,,2013-01-02 18:23:00,
2013-01-02 13:33:00,31.0,10.0,-100.00,North,5,5.0,10.0,40,0.04,,,0.10,480.000000,,2013-01-02 18:33:00,
2013-01-02 13:43:00,31.0,10.0,-100.00,North,5,5.0,10.0,40,0.04,,,0.10,480.000000,,2013-01-02 18:43:00,
2013-01-02 13:53:00,31.0,10.0,-100.00,North,5,5.0,10.0,40,0.04,,,0.10,480.000000,,2013-01-02 18:53:00,
2013-01-02 14:01:00,29.0,9.0,-100.00,North,10,6.0,15.0,43,0.02,,,0.11,295.000000,,2013-01-02 19:01:00,
2013-01-02 14:23:00,29.0,9.0,-100.00,North,10,6.0,15.0,43,0.02,,,0.11,295.000000,,2013-01-02 19:23:00,
2013-01-02 14:33:00,29.0,9.0,-100.00,North,10,6.0,15.0,43,0.02,,,0.11,295.000000,,2013-01-02 19:33:00,
2013-01-02 14:43:00,29.0,9.0,-100.00,North,10,6.0,15.0,43,0.02,,,0.11,295.000000,,2013-01-02 19:43:00,
2013-01-02 14:53:00,29.0,9.0,-100.00,North,10,6.0,15.0,43,0.02,,,0.11,295.000000,,2013-01-02 19:53:00,
2013-01-02 15:01:00,28.0,8.0,-100.00,NNE,15,5.0,11.0,43,0.02,,,0.12,382.000000,,2013-01-02 20:01:00,
2013-01-02 15:23:00,28.0,8.0,-100.00,NNE,15,5.0,11.0,43,0.02,,,0.12,382.000000,,2013-01-02 20:23:00,
2013-01-02 15:33:00,28.0,8.0,-100.00,NNE,15,5.0,11.0,43,0.02,,,0.12,382.000000,,2013-01-02 20:33:00,
2013-01-02 15:42:00,28.0,8.0,-100.00,NNE,15,5.0,11.0,43,0.02,,,0.12,382.000000,,2013-01-02 20:42:00,
2013-01-02 15:53:00,28.0,8.0,-100.00,NNE,15,5.0,11.0,43,0.02,,,0.12,382.000000,,2013-01-02 20:53:00,
2013-01-02 16:01:00,28.0,13.0,-100.00,NNW,340,5.0,10.0,52,0.00,,,0.12,225.000000,,2013-01-02 21:01:00,
2013-01-02 16:33:00,28.0,13.0,-100.00,NNW,340,5.0,10.0,52,0.00,,,0.12,225.000000,,2013-01-02 21:33:00,
2013-01-02 16:43:00,28.0,13.0,-100.00,NNW,340,5.0,10.0,52,0.00,,,0.12,225.000000,,2013-01-02 21:43:00,
2013-01-02 16:53:00,28.0,13.0,-100.00,NNW,340,5.0,10.0,52,0.00,,,0.12,225.000000,,2013-01-02 21:53:00,
2013-01-02 17:01:00,24.0,12.0,-100.00,NE,43,3.0,9.0,59,0.00,,,0.12,84.000000,,2013-01-02 22:01:00,
2013-01-02 17:22:00,24.0,12.0,-100.00,NE,43,3.0,9.0,59,0.00,,,0.12,84.000000,,2013-01-02 22:22:00,
2013-01-02 17:32:00,24.0,12.0,-100.00,NE,43,3.0,9.0,59,0.00,,,0.12,84.000000,,2013-01-02 22:32:00,
2013-01-02 17:43:00,24.0,12.0,-100.00,NE,43,3.0,9.0,59,0.00,,,0.12,84.000000,,2013-01-02 22:43:00,
2013-01-02 17:53:00,24.0,12.0,-100.00,NE,43,3.0,9.0,59,0.00,,,0.12,84.000000,,2013-01-02 22:53:00,
2013-01-02 18:01:00,22.0,11.0,-100.00,NNW,341,3.0,6.0,63,0.00,,,0.12,3.000000,,2013-01-02 23:01:00,
2013-01-02 18:23:00,22.0,11.0,-100.00,NNW,341,3.0,6.0,63,0.00,,,0.12,3.000000,,2013-01-02 23:23:00,
2013-01-02 18:33:00,22.0,11.0,-100.00,NNW,341,3.0,6.0,63,0.00,,,0.12,3.000000,,2013-01-02 23:33:00,
2013-01-02 18:43:00,22.0,11.0,-100.00,NNW,341,3.0,6.0,63,0.00,,,0.12,3.000000,,2013-01-02 23:43:00,
2013-01-02 18:53:00,22.0,11.0,-100.00,NNW,341,3.0,6.0,63,0.00,,,0.12,3.000000,,2013-01-02 23:53:00,
2013-01-02 19:01:00,21.0,10.0,-100.00,NNE,23,3.0,6.0,62,0.00,,,0.12,0.000000,,2013-01-03 00:01:00,
2013-01-02 19:22:00,21.0,10.0,-100.00,NNE,23,3.0,6.0,62,0.00,,,0.12,0.000000,,2013-01-03 00:22:00,
2013-01-02 19:38:00,21.0,10.0,-100.00,NNE,23,3.0,6.0,62,0.00,,,0.12,0.000000,,2013-01-03 00:38:00,
2013-01-02 19:53:00,21.0,10.0,-100.00,NNE,23,3.0,6.0,62,0.00,,,0.12,0.000000,,2013-01-03 00:53:00,
2013-01-02 20:01:00,22.0,10.0,-100.00,NNE,14,2.0,6.0,58,0.00,,,0.12,0.000000,,2013-01-03 01:01:00,
2013-01-02 20:23:00,22.0,10.0,-100.00,NNE,14,2.0,6.0,58,0.00,,,0.12,0.000000,,2013-01-03 01:23:00,
2013-01-02 20:33:00,22.0,10.0,-100.00,NNE,14,2.0,6.0,58,0.00,,,0.12,0.000000,,2013-01-03 01:33:00,
2013-01-02 20:43:00,22.0,10.0,-100.00,NNE,14,2.0,6.0,58,0.00,,,0.12,0.000000,,2013-01-03 01:43:00,
2013-01-02 20:53:00,22.0,10.0,-100.00,NNE,14,2.0,6.0,58,0.00,,,0.12,0.000000,,2013-01-03 01:53:00,
2013-01-02 21:01:00,21.0,10.0,-100.00,NNE,17,2.0,5.0,62,0.00,,,0.12,0.000000,,2013-01-03 02:01:00,
2013-01-02 21:33:00,21.0,10.0,-100.00,NNE,17,2.0,5.0,62,0.00,,,0.12,0.000000,,2013-01-03 02:33:00,
2013-01-02 21:43:00,21.0,10.0,-100.00,NNE,17,2.0,5.0,62,0.00,,,0.12,0.000000,,2013-01-03 02:43:00,
2013-01-02 21:53:00,21.0,10.0,-100.00,NNE,17,2.0,5.0,62,0.00,,,0.12,0.000000,,2013-01-03 02:53:00,
2013-01-02 22:01:00,20.0,8.0,-100.00,North,4,3.0,5.0,58,0.00,,,0.12,0.000000,,2013-01-03 03:01:00,
2013-01-02 22:47:00,20.0,8.0,-100.00,North,4,3.0,5.0,58,0.00,,,0.12,0.000000,,2013-01-03 03:47:00,
2013-01-02 22:53:00,20.0,8.0,-100.00,North,4,3.0,5.0,58,0.00,,,0.12,0.000000,,2013-01-03 03:53:00,
2013-01-02 23:01:00,20.0,8.0,-100.00,NNW,347,3.0,5.0,60,0.00,,,0.12,0.000000,,2013-01-03 04:01:00,
2013-01-02 23:32:00,20.0,8.0,-100.00,NNW,347,3.0,5.0,60,0.00,,,0.12,0.000000,,2013-01-03 04:32:00,
2013-01-02 23:43:00,20.0,8.0,-100.00,NNW,347,3.0,5.0,60,0.00,,,0.12,0.000000,,2013-01-03 04:43:00,
2013-01-02 23:53:00,20.0,8.0,-100.00,NNW,347,3.0,5.0,60,0.00,,,0.12,0.000000,,2013-01-03 04:53:00,